OK,108,46,878,108,2014-10-01T01:40:00,0,28072648,206369
OK,108,46,878,108,2014-10-01T01:45:00,0,28073095,206369
OK,108,46,878,108,2014-10-01T01:50:00,0,28073543,206369
OK,108,46,878,108,2014-10-01T01:55:00,0,28073861,206369
OK,108,46,878,108,2014-10-01T02:00:00,0,28074310,206369
OK,108,46,878,108,2014-10-01T02:05:00,0,28074751,206369
OK,108,46,878,108,2014-10-01T02:10:00,0,28075199,206369
OK,108,46,878,108,2014-10-01T02:15:00,0,28075648,206369
OK,108,46,878,108,2014-10-01T02:20:00,0,28076034,206369
OK,108,46,878,108,2014-10-01T02:25:00,0,28076480,206369
OK,108,46,878,108,2014-10-01T02:30:00,0,28076929,206369
OK,108,46,878,108,2014-10-01T02:35:00,0,28077378,206369
OK,108,46,878,108,2014-10-01T02:40:00,0,28077781,206369
OK,108,46,878,108,2014-10-01T02:45:00,0,28078230,206369
OK,108,46,878,108,2014-10-01T02:50:00,0,28078675,206369
OK,108,46,878,108,2014-10-01T02:55:00,0,28079124,206369
OK,108,46,878,108,2014-10-01T03:00:00,0,28079566,206369
OK,108,46,878,108,2014-10-01T03:05:00,0,28080015,206369
OK,108,46,878,108,2014-10-01T03:10:00,0,28080349,206369
OK,108,46,878,108,2014-10-01T03:15:00,0,28080798,206369
OK,108,46,878,108,2014-10-01T03:20:00,0,28081247,206369
OK,108,46,878,108,2014-10-01T03:25:00,0,28081694,206369
OK,114,44,878,114,2014-10-01T03:30:00,2,28082143,206369
OK,126,40,878,126,2014-10-01T03:35:00,1,28082577,206369
OK,126,40,878,126,2014-10-01T03:40:00,0,28083008,206369
OK,126,40,878,126,2014-10-01T03:45:00,0,28083457,206369
OK,126,40,878,126,2014-10-01T03:50:00,0,28083906,206369
OK,126,40,878,126,2014-10-01T03:55:00,0,28084348,206369
OK,126,40,878,126,2014-10-01T04:00:00,0,28084774,206369
OK,126,40,878,126,2014-10-01T04:05:00,0,28085221,206369
OK,126,40,878,126,2014-10-01T04:10:00,0,28085666,206369
OK,126,40,878,126,2014-10-01T04:15:00,0,28086115,206369
OK,126,40,878,126,2014-10-01T04:20:00,0,28086557,206369
OK,126,40,878,126,2014-10-01T04:25:00,0,28087006,206369
OK,126,40,878,126,2014-10-01T04:30:00,0,28087451,206369
OK,127,39,878,127,2014-10-01T04:35:00,1,28087900,206369
OK,106,47,878,106,2014-10-01T04:40:00,1,28088325,206369
OK,122,41,878,122,2014-10-01T04:45:00,2,28088773,206369
OK,139,36,878,139,2014-10-01T04:50:00,0,28089203,206369
OK,139,36,878,139,2014-10-01T04:55:00,0,28089652,206369
OK,113,44,878,113,2014-10-01T05:05:00,2,28090101,206369
OK,117,43,878,117,2014-10-01T05:10:00,0,28090894,206369
OK,153,33,878,153,2014-10-01T05:15:00,1,28091343,206369
OK,198,25,878,198,2014-10-01T05:20:00,1,28091760,206369
OK,226,22,878,226,2014-10-01T05:25:00,1,28092209,206369
OK,115,43,878,115,2014-10-01T05:30:00,2,28092653,206369
OK,119,42,878,119,2014-10-01T05:35:00,0,28093094,206369
OK,112,45,878,112,2014-10-01T05:40:00,2,28093525,206369
OK,114,44,878,114,2014-10-01T05:45:00,3,28093974,206369
OK,149,33,878,149,2014-10-01T05:50:00,0,28094387,206369
OK,135,37,878,135,2014-10-01T05:55:00,1,28094830,206369
OK,149,33,878,149,2014-10-01T06:00:00,0,28095277,206369
OK,149,33,878,149,2014-10-01T06:05:00,0,28095726,206369
OK,149,33,878,149,2014-10-01T06:10:00,0,28096139,206369
OK,149,33,878,149,2014-10-01T06:15:00,0,28096588,206369
OK,149,33,878,149,2014-10-01T06:20:00,0,28097022,206369
OK,149,33,878,149,2014-10-01T06:25:00,0,28097471,206369
OK,149,33,878,149,2014-10-01T06:30:00,0,28097920,206369
OK,149,33,878,149,2014-10-01T06:35:00,0,28098359,206369
OK,149,33,878,149,2014-10-01T06:40:00,0,28098801,206369
OK,149,33,878,149,2014-10-01T06:45:00,0,28099249,206369
OK,149,33,878,149,2014-10-01T06:50:00,0,28099592,206369
OK,149,33,878,149,2014-10-01T06:55:00,0,28100041,206369
OK,99,51,878,99,2014-10-01T07:00:00,1,28100348,206369
OK,121,41,878,121,2014-10-01T07:05:00,2,28100797,206369
OK,144,35,878,144,2014-10-01T07:10:00,1,28101168,206369
OK,239,21,878,239,2014-10-01T07:15:00,1,28101617,206369
OK,116,43,878,116,2014-10-01T07:20:00,3,28102053,206369
OK,116,43,878,116,2014-10-01T07:25:00,3,28102502,206369
OK,89,56,878,89,2014-10-01T07:30:00,0,28102933,206369
OK,89,56,878,89,2014-10-01T07:35:00,0,28103376,206369
OK,89,56,878,89,2014-10-01T07:40:00,0,28103821,206369
OK,113,44,878,113,2014-10-01T07:45:00,1,28104266,206369
OK,113,44,878,113,2014-10-01T07:50:00,1,28104708,206369
OK,113,44,878,113,2014-10-01T07:55:00,0,28105152,206369
OK,114,44,878,114,2014-10-01T08:00:00,1,28105592,206369
OK,114,44,878,114,2014-10-01T08:05:00,1,28106041,206369
OK,114,44,878,114,2014-10-01T08:10:00,0,28106478,206369
OK,114,44,878,114,2014-10-01T08:15:00,0,28106884,206369
OK,114,44,878,114,2014-10-01T08:20:00,0,28107316,206369
OK,114,44,878,114,2014-10-01T08:25:00,0,28107765,206369
OK,114,44,878,114,2014-10-01T08:30:00,0,28108204,206369
OK,114,44,878,114,2014-10-01T08:35:00,0,28108653,206369
OK,114,44,878,114,2014-10-01T08:40:00,0,28109081,206369
OK,100,50,878,100,2014-10-01T08:45:00,1,28109530,206369
OK,100,50,878,100,2014-10-01T08:50:00,1,28109873,206369
OK,92,54,878,92,2014-10-01T08:55:00,1,28110322,206369
OK,92,54,878,92,2014-10-01T09:00:00,0,28110745,206369
OK,105,48,878,105,2014-10-01T09:05:00,1,28111194,206369
OK,105,48,878,105,2014-10-01T09:10:00,0,28111623,206369
OK,118,42,878,118,2014-10-01T09:15:00,1,28112072,206369
OK,101,50,878,101,2014-10-01T09:20:00,3,28112413,206369
OK,94,53,878,94,2014-10-01T09:25:00,2,28112862,206369
OK,101,50,878,101,2014-10-01T09:30:00,0,28113286,206369
OK,101,50,878,101,2014-10-01T09:35:00,0,28113735,206369
OK,101,50,878,101,2014-10-01T09:40:00,0,28114167,206369
OK,112,45,878,112,2014-10-01T09:45:00,1,28114616,206369
OK,112,45,878,112,2014-10-01T09:50:00,0,28114970,206369
OK,112,45,878,112,2014-10-01T09:55:00,0,28115419,206369
OK,111,45,878,111,2014-10-01T10:00:00,1,28115831,206369
OK,111,45,878,111,2014-10-01T10:05:00,1,28116280,206369
OK,112,45,878,112,2014-10-01T10:10:00,1,28116688,206369
OK,119,42,878,119,2014-10-01T10:15:00,2,28117137,206369
OK,126,40,878,126,2014-10-01T10:20:00,1,28117562,206369
OK,126,40,878,126,2014-10-01T10:25:00,0,28118011,206369
OK,126,40,878,126,2014-10-01T10:30:00,0,28118456,206369
OK,126,40,878,126,2014-10-01T10:35:00,0,28118903,206369
OK,126,40,878,126,2014-10-01T10:40:00,0,28119347,206369
OK,126,40,878,126,2014-10-01T10:45:00,0,28119795,206369
OK,122,41,878,122,2014-10-01T10:50:00,1,28120243,206369
OK,122,41,878,122,2014-10-01T10:55:00,1,28120692,206369
OK,122,41,878,122,2014-10-01T11:00:00,0,28121075,206369
OK,129,39,878,129,2014-10-01T11:05:00,1,28121524,206369
OK,129,39,878,129,2014-10-01T11:10:00,1,28121962,206369
OK,129,39,878,129,2014-10-01T11:15:00,0,28122411,206369
OK,108,46,878,108,2014-10-01T11:20:00,1,28122852,206369
OK,119,42,878,119,2014-10-01T11:25:00,2,28123301,206369
OK,130,38,878,130,2014-10-01T11:30:00,1,28123733,206369
OK,114,44,878,114,2014-10-01T11:35:00,1,28124182,206369
OK,114,44,878,114,2014-10-01T11:40:00,0,28124584,206369
OK,114,44,878,114,2014-10-01T11:45:00,0,28125033,206369
OK,114,44,878,114,2014-10-01T11:50:00,0,28125462,206369
OK,97,52,878,97,2014-10-01T11:55:00,1,28125911,206369
OK,97,52,878,97,2014-10-01T12:00:00,1,28126263,206369
OK,97,52,878,97,2014-10-01T12:05:00,0,28126712,206369
OK,97,52,878,97,2014-10-01T12:10:00,0,28127161,206369
OK,97,52,878,97,2014-10-01T12:15:00,0,28127610,206369
OK,136,37,878,136,2014-10-01T12:20:00,1,28128038,206369
OK,136,37,878,136,2014-10-01T12:25:00,1,28128487,206369
OK,121,41,878,121,2014-10-01T12:30:00,2,28128922,206369
OK,107,47,878,107,2014-10-01T12:35:00,1,28129371,206369
OK,107,47,878,107,2014-10-01T12:40:00,0,28129805,206369
OK,107,47,878,107,2014-10-01T12:45:00,0,28130254,206369
OK,92,54,878,92,2014-10-01T12:50:00,2,28130682,206369
OK,92,54,878,92,2014-10-01T12:55:00,2,28131131,206369
OK,92,54,878,92,2014-10-01T13:00:00,0,28131568,206369
OK,79,64,878,79,2014-10-01T13:05:00,2,28132017,206369
OK,82,61,878,82,2014-10-01T13:10:00,3,28132455,206369
OK,123,41,878,123,2014-10-01T13:15:00,1,28132902,206369
OK,156,32,878,156,2014-10-01T13:20:00,1,28133340,206369
OK,141,35,878,141,2014-10-01T13:25:00,3,28133789,206369
OK,141,35,878,141,2014-10-01T13:30:00,3,28134228,206369
OK,117,43,878,117,2014-10-01T13:35:00,3,28134677,206369
OK,125,40,878,125,2014-10-01T13:40:00,2,28135096,206369
OK,132,38,878,132,2014-10-01T13:45:00,1,28135545,206369
OK,124,40,878,124,2014-10-01T13:50:00,1,28135982,206369
OK,136,37,878,136,2014-10-01T13:55:00,2,28136431,206369
OK,128,39,878,128,2014-10-01T14:00:00,2,28136871,206369
OK,143,35,878,143,2014-10-01T14:05:00,2,28137320,206369
OK,126,40,878,126,2014-10-01T14:10:00,4,28137754,206369
OK,129,39,878,129,2014-10-01T14:15:00,2,28138203,206369
OK,110,45,878,110,2014-10-01T14:20:00,4,28138631,206369
OK,120,42,878,120,2014-10-01T14:25:00,5,28139080,206369
OK,130,38,878,130,2014-10-01T14:30:00,3,28139491,206369
OK,120,42,878,120,2014-10-01T14:35:00,3,28139940,206369
OK,123,41,878,123,2014-10-01T14:40:00,0,28140382,206369
OK,115,43,878,115,2014-10-01T14:45:00,3,28140831,206369
OK,97,52,878,97,2014-10-01T14:50:00,4,28141257,206369
OK,80,63,878,80,2014-10-01T14:55:00,2,28141706,206369
OK,80,63,878,80,2014-10-01T15:00:00,0,28142134,206369
OK,80,63,878,80,2014-10-01T15:05:00,0,28142583,206369
OK,80,63,878,80,2014-10-01T15:10:00,0,28143010,206369
OK,126,40,878,126,2014-10-01T15:15:00,1,28143459,206369
OK,128,39,878,128,2014-10-01T15:20:00,1,28143907,206369
OK,119,42,878,119,2014-10-01T15:25:00,2,28144356,206369
OK,106,47,878,106,2014-10-01T15:30:00,1,28144778,206369
OK,106,47,878,106,2014-10-01T15:35:00,1,28145191,206369
OK,106,47,878,106,2014-10-01T15:40:00,0,28145640,206369
OK,106,47,878,106,2014-10-01T15:45:00,0,28146089,206369
OK,106,47,878,106,2014-10-01T15:50:00,0,28146538,206369
OK,106,47,878,106,2014-10-01T15:55:00,0,28146947,206369
OK,83,60,878,83,2014-10-01T16:00:00,2,28147390,206369
OK,83,60,878,83,2014-10-01T16:05:00,2,28147839,206369
OK,83,60,878,83,2014-10-01T16:10:00,0,28148240,206369
OK,83,60,878,83,2014-10-01T16:15:00,0,28148689,206369
OK,83,60,878,83,2014-10-01T16:20:00,0,28149128,206369
OK,83,60,878,83,2014-10-01T16:25:00,0,28149577,206369
OK,83,60,878,83,2014-10-01T16:30:00,0,28150003,206369
OK,83,60,878,83,2014-10-01T16:35:00,0,28150452,206369
OK,83,60,878,83,2014-10-01T16:40:00,0,28150870,206369
OK,83,60,878,83,2014-10-01T16:45:00,0,28151319,206369
OK,83,60,878,83,2014-10-01T16:50:00,0,28151768,206369
OK,136,37,878,136,2014-10-01T17:00:00,1,28152217,206369
OK,136,37,878,136,2014-10-01T17:05:00,1,28152663,206369
OK,127,39,878,127,2014-10-01T17:10:00,1,28153110,206369
OK,127,39,878,127,2014-10-01T17:15:00,1,28153559,206369
OK,127,39,878,127,2014-10-01T17:20:00,0,28153969,206369
OK,127,39,878,127,2014-10-01T17:25:00,0,28154418,206369
OK,92,54,878,92,2014-10-01T17:30:00,1,28154860,206369
OK,92,54,878,92,2014-10-01T17:35:00,0,28155308,206369
OK,92,54,878,92,2014-10-01T17:40:00,0,28155726,206369
OK,92,54,878,92,2014-10-01T17:45:00,0,28156175,206369
OK,92,54,878,92,2014-10-01T17:50:00,0,28156624,206369
OK,92,54,878,92,2014-10-01T17:55:00,0,28157062,206369
OK,92,54,878,92,2014-10-01T18:00:00,0,28157492,206369
OK,92,54,878,92,2014-10-01T18:05:00,0,28157940,206369
OK,92,54,878,92,2014-10-01T18:10:00,0,28158384,206369
OK,92,54,878,92,2014-10-01T18:15:00,0,28158830,206369
OK,92,54,878,92,2014-10-01T18:20:00,0,28159276,206369
OK,92,54,878,92,2014-10-01T18:25:00,0,28159611,206369
OK,92,54,878,92,2014-10-01T18:30:00,0,28160060,206369
OK,92,54,878,92,2014-10-01T18:35:00,0,28160509,206369
OK,92,54,878,92,2014-10-01T18:40:00,0,28160947,206369
OK,92,54,878,92,2014-10-01T18:45:00,0,28161396,206369
OK,92,54,878,92,2014-10-01T18:50:00,0,28161813,206369
OK,92,54,878,92,2014-10-01T18:55:00,0,28162262,206369
OK,92,54,878,92,2014-10-01T19:00:00,0,28162658,206369
OK,92,54,878,92,2014-10-01T19:05:00,0,28163095,206369
OK,92,54,878,92,2014-10-01T19:10:00,0,28163543,206369
OK,109,46,878,109,2014-10-01T19:15:00,1,28163992,206369
OK,109,46,878,109,2014-10-01T19:20:00,0,28164423,206369
OK,109,46,878,109,2014-10-01T19:25:00,0,28164872,206369
OK,132,38,878,132,2014-10-01T19:30:00,1,28165297,206369
OK,132,38,878,132,2014-10-01T19:35:00,1,28165745,206369
OK,132,38,878,132,2014-10-01T19:40:00,0,28166186,206369
OK,132,38,878,132,2014-10-01T19:45:00,0,28166548,206369
OK,132,38,878,132,2014-10-01T19:50:00,0,28166997,206369
OK,132,38,878,132,2014-10-01T19:55:00,0,28167426,206369
OK,132,38,878,132,2014-10-01T20:00:00,0,28167860,206369
OK,132,38,878,132,2014-10-01T20:05:00,0,28168308,206369
OK,132,38,878,132,2014-10-01T20:10:00,0,28168753,206369
OK,132,38,878,132,2014-10-01T20:15:00,0,28169202,206369
OK,132,38,878,132,2014-10-01T20:20:00,0,28169650,206369
OK,127,39,878,127,2014-10-01T20:25:00,1,28170076,206369
OK,127,39,878,127,2014-10-01T20:30:00,0,28170521,206369
OK,106,47,878,106,2014-10-01T20:35:00,0,28170969,206369
OK,106,47,878,106,2014-10-01T20:40:00,0,28171406,206369
OK,106,47,878,106,2014-10-01T20:45:00,0,28171852,206369
OK,106,47,878,106,2014-10-01T20:50:00,0,28172300,206369
OK,106,47,878,106,2014-10-01T20:55:00,0,28172746,206369
OK,106,47,878,106,2014-10-01T21:00:00,0,28173192,206369
OK,106,47,878,106,2014-10-01T21:05:00,0,28173641,206369
OK,106,47,878,106,2014-10-01T21:10:00,0,28174082,206369
OK,105,48,878,105,2014-10-01T21:15:00,1,28174531,206369
OK,105,48,878,105,2014-10-01T21:20:00,0,28174957,206369
OK,105,48,878,105,2014-10-01T21:25:00,0,28175353,206369
OK,105,48,878,105,2014-10-01T21:30:00,0,28175802,206369
OK,105,48,878,105,2014-10-01T21:35:00,0,28176251,206369
OK,105,48,878,105,2014-10-01T21:40:00,0,28176700,206369
OK,105,48,878,105,2014-10-01T21:45:00,0,28177058,206369
OK,105,48,878,105,2014-10-01T21:50:00,0,28177496,206369
OK,105,48,878,105,2014-10-01T21:55:00,0,28177942,206369
OK,105,48,878,105,2014-10-01T22:00:00,0,28178391,206369
OK,105,48,878,105,2014-10-01T22:05:00,0,28178838,206369
OK,105,48,878,105,2014-10-01T22:10:00,0,28179272,206369
OK,105,48,878,105,2014-10-01T22:15:00,0,28179715,206369
OK,105,48,878,105,2014-10-01T22:20:00,0,28180162,206369
OK,105,48,878,105,2014-10-01T22:25:00,0,28180560,206369
OK,105,48,878,105,2014-10-01T22:30:00,0,28181009,206369
OK,105,48,878,105,2014-10-01T22:35:00,0,28181433,206369
OK,105,48,878,105,2014-10-01T22:40:00,0,28181881,206369
OK,105,48,878,105,2014-10-01T22:45:00,0,28182328,206369
OK,105,48,878,105,2014-10-01T22:50:00,0,28182777,206369
OK,105,48,878,105,2014-10-01T22:55:00,0,28183194,206369
OK,105,48,878,105,2014-10-01T23:00:00,0,28183627,206369
OK,105,48,878,105,2014-10-01T23:05:00,0,28184072,206369
OK,105,48,878,105,2014-10-01T23:10:00,0,28184521,206369
OK,105,48,878,105,2014-10-01T23:15:00,0,28184956,206369
OK,105,48,878,105,2014-10-01T23:20:00,0,28185404,206369
OK,105,48,878,105,2014-10-01T23:25:00,0,28185835,206369
OK,105,48,878,105,2014-10-01T23:30:00,0,28186227,206369
OK,105,48,878,105,2014-10-01T23:40:00,0,28187074,206369
OK,105,48,878,105,2014-10-01T23:55:00,0,28188406,206369
OK,105,48,878,105,2014-10-02T00:00:00,0,28188842,206369
OK,105,48,878,105,2014-10-02T00:05:00,0,28189291,206369
OK,105,48,878,105,2014-10-02T00:10:00,0,28189713,206369
OK,105,48,878,105,2014-10-02T00:15:00,0,28190162,206369
OK,105,48,878,105,2014-10-02T00:20:00,0,28190515,206369
OK,105,48,878,105,2014-10-02T00:25:00,0,28190964,206369
OK,105,48,878,105,2014-10-02T00:30:00,0,28191413,206369
OK,105,48,878,105,2014-10-02T00:35:00,0,28191719,206369
OK,105,48,878,105,2014-10-02T00:40:00,0,28192168,206369
OK,105,48,878,105,2014-10-02T00:45:00,0,28192601,206369
OK,105,48,878,105,2014-10-02T00:50:00,0,28193045,206369
OK,105,48,878,105,2014-10-02T00:55:00,0,28193412,206369
OK,105,48,878,105,2014-10-02T01:05:00,0,28194310,206369
OK,105,48,878,105,2014-10-02T01:15:00,0,28194759,206369
OK,105,48,878,105,2014-10-02T01:20:00,0,28195444,206369
OK,105,48,878,105,2014-10-02T01:30:00,0,28195893,206369
OK,105,48,878,105,2014-10-02T01:35:00,0,28196626,206369
OK,105,48,878,105,2014-10-02T01:40:00,0,28197049,206369
OK,105,48,878,105,2014-10-02T01:45:00,0,28197498,206369
OK,105,48,878,105,2014-10-02T01:50:00,0,28197946,206369
OK,105,48,878,105,2014-10-02T01:55:00,0,28198394,206369
OK,105,48,878,105,2014-10-02T02:00:00,0,28198843,206369
OK,105,48,878,105,2014-10-02T02:05:00,0,28199218,206369
OK,105,48,878,105,2014-10-02T02:10:00,0,28199657,206369
OK,105,48,878,105,2014-10-02T02:15:00,0,28200099,206369
OK,105,48,878,105,2014-10-02T02:20:00,0,28200542,206369
OK,105,48,878,105,2014-10-02T02:25:00,0,28200991,206369
OK,105,48,878,105,2014-10-02T02:30:00,0,28201422,206369
OK,105,48,878,105,2014-10-02T02:45:00,0,28202320,206369
OK,105,48,878,105,2014-10-02T02:50:00,0,28202762,206369
OK,105,48,878,105,2014-10-02T02:55:00,0,28203210,206369
OK,105,48,878,105,2014-10-02T03:00:00,0,28203645,206369
OK,105,48,878,105,2014-10-02T03:10:00,0,28204094,206369
OK,105,48,878,105,2014-10-02T03:25:00,0,28204543,206369
OK,105,48,878,105,2014-10-02T03:30:00,0,28204992,206369
OK,105,48,878,105,2014-10-02T03:35:00,0,28205420,206369
OK,105,48,878,105,2014-10-02T03:40:00,0,28205867,206369
OK,105,48,878,105,2014-10-02T03:45:00,0,28206250,206369
OK,105,48,878,105,2014-10-02T03:55:00,0,28207148,206369
OK,105,48,878,105,2014-10-02T04:00:00,0,28207568,206369
OK,105,48,878,105,2014-10-02T04:05:00,0,28208016,206369
OK,105,48,878,105,2014-10-02T04:10:00,0,28208443,206369
OK,105,48,878,105,2014-10-02T04:15:00,0,28208892,206369
OK,105,48,878,105,2014-10-02T04:20:00,0,28209330,206369
OK,105,48,878,105,2014-10-02T04:25:00,0,28209779,206369
OK,105,48,878,105,2014-10-02T04:30:00,0,28210202,206369
OK,105,48,878,105,2014-10-02T04:35:00,0,28210651,206369
OK,105,48,878,105,2014-10-02T04:40:00,0,28211076,206369
OK,105,48,878,105,2014-10-02T04:45:00,0,28211520,206369
OK,105,48,878,105,2014-10-02T04:50:00,0,28211898,206369
OK,105,48,878,105,2014-10-02T04:55:00,0,28212347,206369
OK,105,48,878,105,2014-10-02T05:00:00,0,28212776,206369
OK,105,48,878,105,2014-10-02T05:05:00,0,28213225,206369
OK,105,48,878,105,2014-10-02T05:10:00,0,28213663,206369
OK,121,41,878,121,2014-10-02T05:15:00,3,28214112,206369
OK,122,41,878,122,2014-10-02T05:20:00,0,28214525,206369
OK,93,54,878,93,2014-10-02T05:25:00,2,28214974,206369
OK,104,48,878,104,2014-10-02T05:30:00,1,28215390,206369
OK,104,48,878,104,2014-10-02T05:40:00,0,28215839,206369
OK,104,48,878,104,2014-10-02T05:45:00,0,28216618,206369
OK,104,48,878,104,2014-10-02T05:50:00,0,28217065,206369
OK,117,43,878,117,2014-10-02T05:55:00,1,28217514,206369
OK,117,43,878,117,2014-10-02T06:00:00,0,28217953,206369
OK,211,23,878,211,2014-10-02T06:05:00,2,28218402,206369
OK,154,32,878,154,2014-10-02T06:10:00,1,28218822,206369
OK,154,32,878,154,2014-10-02T06:15:00,0,28219271,206369
OK,154,32,878,154,2014-10-02T06:20:00,0,28219644,206369
OK,154,32,878,154,2014-10-02T06:25:00,0,28220093,206369
OK,154,32,878,154,2014-10-02T06:30:00,0,28220527,206369
OK,154,32,878,154,2014-10-02T06:35:00,0,28220976,206369
OK,109,46,878,109,2014-10-02T06:40:00,1,28221360,206369
OK,109,46,878,109,2014-10-02T06:45:00,0,28221643,206369
OK,118,42,878,118,2014-10-02T07:00:00,2,28222237,206369
OK,125,40,878,125,2014-10-02T07:05:00,4,28222686,206369
OK,125,40,878,125,2014-10-02T07:10:00,2,28223117,206369
OK,142,35,878,142,2014-10-02T07:15:00,0,28223553,206369
OK,142,35,878,142,2014-10-02T07:20:00,0,28224000,206369
OK,256,19,878,256,2014-10-02T07:25:00,1,28224355,206369
OK,256,19,878,256,2014-10-02T07:30:00,0,28224804,206369
OK,256,19,878,256,2014-10-02T07:35:00,0,28225253,206369
OK,256,19,878,256,2014-10-02T07:40:00,0,28225575,206369
OK,256,19,878,256,2014-10-02T07:50:00,0,28226465,206369
OK,256,19,878,256,2014-10-02T07:55:00,0,28226914,206369
OK,256,19,878,256,2014-10-02T08:00:00,0,28227329,206369
OK,256,19,878,256,2014-10-02T08:05:00,0,28227778,206369
OK,256,19,878,256,2014-10-02T08:10:00,0,28228137,206369
OK,95,53,878,95,2014-10-02T08:15:00,1,28228586,206369
OK,95,53,878,95,2014-10-02T08:20:00,0,28228996,206369
OK,110,45,878,110,2014-10-02T08:25:00,3,28229445,206369
OK,110,45,878,110,2014-10-02T08:30:00,0,28229795,206369
OK,110,45,878,110,2014-10-02T08:35:00,0,28230244,206369
OK,110,45,878,110,2014-10-02T08:40:00,0,28230612,206369
OK,110,45,878,110,2014-10-02T08:45:00,0,28231059,206369
OK,110,45,878,110,2014-10-02T08:50:00,0,28231482,206369
OK,110,45,878,110,2014-10-02T08:55:00,0,28231931,206369
OK,110,45,878,110,2014-10-02T09:00:00,0,28232273,206369
OK,110,45,878,110,2014-10-02T09:10:00,0,28232722,206369
OK,114,44,878,114,2014-10-02T09:15:00,3,28233171,206369
OK,113,44,878,113,2014-10-02T09:20:00,2,28233595,206369
OK,113,44,878,113,2014-10-02T09:25:00,0,28234044,206369
OK,113,44,878,113,2014-10-02T09:30:00,0,28234377,206369
OK,156,32,878,156,2014-10-02T09:35:00,1,28234826,206369
OK,156,32,878,156,2014-10-02T09:40:00,0,28235253,206369
OK,112,45,878,112,2014-10-02T09:45:00,1,28235702,206369
OK,112,45,878,112,2014-10-02T09:50:00,0,28236145,206369
OK,112,45,878,112,2014-10-02T09:55:00,0,28236592,206369
OK,112,45,878,112,2014-10-02T10:00:00,0,28236995,206369
OK,112,45,878,112,2014-10-02T10:05:00,0,28237443,206369
OK,112,45,878,112,2014-10-02T10:10:00,0,28237891,206369
OK,112,45,878,112,2014-10-02T10:15:00,0,28238338,206369
OK,112,45,878,112,2014-10-02T10:20:00,0,28238779,206369
OK,112,45,878,112,2014-10-02T10:25:00,0,28239228,206369
OK,112,45,878,112,2014-10-02T10:30:00,0,28239658,206369
OK,134,37,878,134,2014-10-02T10:35:00,0,28240107,206369
OK,134,37,878,134,2014-10-02T10:40:00,0,28240551,206369
OK,134,37,878,134,2014-10-02T10:45:00,0,28241000,206369
OK,134,37,878,134,2014-10-02T10:50:00,0,28241432,206369
OK,95,53,878,95,2014-10-02T10:55:00,1,28241880,206369
OK,95,53,878,95,2014-10-02T11:00:00,1,28242276,206369
OK,95,53,878,95,2014-10-02T11:05:00,0,28242725,206369
OK,124,40,878,124,2014-10-02T11:15:00,0,28243174,206369
OK,148,34,878,148,2014-10-02T11:20:00,1,28243937,206369
OK,148,34,878,148,2014-10-02T11:25:00,0,28244366,206369
OK,148,34,878,148,2014-10-02T11:30:00,0,28244815,206369
OK,113,44,878,113,2014-10-02T11:35:00,0,28245264,206369
OK,113,44,878,113,2014-10-02T11:40:00,0,28245670,206369
OK,113,44,878,113,2014-10-02T11:45:00,0,28246119,206369
OK,92,54,878,92,2014-10-02T11:50:00,1,28246556,206369
OK,92,54,878,92,2014-10-02T11:55:00,1,28247005,206369
OK,92,54,878,92,2014-10-02T12:00:00,0,28247451,206369
OK,92,54,878,92,2014-10-02T12:05:00,0,28247881,206369
OK,92,54,878,92,2014-10-02T12:10:00,0,28248330,206369
OK,107,47,878,107,2014-10-02T12:15:00,2,28248777,206369
OK,99,51,878,99,2014-10-02T12:20:00,1,28249205,206369
OK,99,51,878,99,2014-10-02T12:25:00,0,28249649,206369
OK,99,51,878,99,2014-10-02T12:30:00,0,28250068,206369
OK,141,35,878,141,2014-10-02T12:35:00,1,28250466,206369
OK,85,59,878,85,2014-10-02T12:45:00,1,28251246,206369
OK,85,59,878,85,2014-10-02T13:20:00,0,28251791,206369
OK,110,45,878,110,2014-10-02T13:30:00,1,28252375,206369
OK,110,45,878,110,2014-10-02T13:35:00,1,28252817,206369
OK,110,45,878,110,2014-10-02T13:40:00,0,28253234,206369
OK,102,49,878,102,2014-10-02T13:45:00,1,28253683,206369
OK,102,49,878,102,2014-10-02T13:50:00,0,28254088,206369
OK,102,49,878,102,2014-10-02T13:55:00,0,28254409,206369
OK,167,30,878,167,2014-10-02T14:10:00,1,28254986,206369
OK,163,31,878,163,2014-10-02T14:15:00,2,28255435,206369
OK,159,31,878,159,2014-10-02T14:20:00,1,28255863,206369
OK,159,31,878,159,2014-10-02T14:25:00,0,28256312,206369
OK,159,31,878,159,2014-10-02T14:30:00,0,28256740,206369
OK,91,55,878,91,2014-10-02T14:35:00,1,28257189,206369
OK,91,55,878,91,2014-10-02T14:40:00,0,28257630,206369
OK,129,39,878,129,2014-10-02T14:45:00,2,28258078,206369
OK,140,36,878,140,2014-10-02T14:50:00,1,28258511,206369
OK,99,51,878,99,2014-10-02T14:55:00,1,28258957,206369
OK,99,51,878,99,2014-10-02T15:00:00,1,28259406,206369
OK,99,51,878,99,2014-10-02T15:05:00,0,28259853,206369
OK,99,51,878,99,2014-10-02T15:10:00,0,28260286,206369
OK,118,42,878,118,2014-10-02T15:15:00,3,28260735,206369
OK,105,48,878,105,2014-10-02T15:20:00,2,28261175,206369